Location: ???? ?????
(30.0052°N, 31.2891°E)
Time: 15:35:56
(UTC+00:00)

Hubble Space Telescope - Pass Details

Date: 29 September 2024
Orbit: 503 x 507 km, 28.5° (Epoch: 12 October)

Event Time Altitude Azimuth Distance (km) Brightness Sun altitude
Exits shadow 02:22:41 42° 212° (SSW) 715 1.1 -19.1°
Maximum altitude 02:23:32 52° 169° (S) 623 1.0 -18.9°
Drops below altitude 10° 02:27:21 10° 92° (E) 1,698 4.5 -18.1°
Sets 02:29:36 0° 87° (E) 2,582 6.0 -17.6°
